Location: Vancouver
(49.2500°N, 123.1330°W)
Time: 18:48:44
(UTC-07:00)

Vanguard 2 Rocket - Visible Passes

Search period start: 17 October 2017 00:00
Search period end: 27 October 2017 00:00
Orbit: 555 x 3327 km, 32.9° (Epoch: 16 October)

Date Brightness Start Highest point End Pass type
(mag) Time Alt. Az. Time Alt. Az. Time Alt. Az.
17 Oct 10.8 20:15:36 10° WSW 20:24:33 19° SSW 20:35:26 10° S visible
18 Oct 10.7 19:15:05 10° WSW 19:24:12 22° SSW 19:36:12 10° SSE visible
19 Oct 11.1 20:34:07 10° SW 20:38:22 11° SW 20:43:00 10° SSW visible
20 Oct 10.9 19:31:31 10° WSW 19:38:10 15° SSW 19:46:13 10° S visible
21 Oct 10.8 18:31:00 10° WSW 18:38:03 18° SSW 18:47:16 10° SSE visible
23 Oct 11.0 18:48:53 10° SW 18:52:10 11° SSW 18:55:52 10° SSW visible
